Вернуться в каталог

IUS R/B(1)

АктивенHEO
NORAD 19970·ROCKET BODY·🇺🇸 United States

Запущен May 4, 1989 с Cape Canaveral Space Force Station

Loading…

Ближайшие Пролёты (ближайшие 24 часа)

TLE

СвежийSource: Space-Track

Эпоха: Sep 14, 2026, 05:54 UTC

1 19970U 89033C   26257.24611252  .00003061  00000-0  73703-3 0  9997
2 19970  27.8901 137.7530 5889527 339.3142   4.4775  4.19362164508983

Отслеживайте IUS R/B(1) в реальном времени с AllMySat

Download on the App Store